GW6841 Weather Reports


time (UTC)temp
F
wind
direction
speed
knots
gust
knots
rain 1hr
in
rain 24hr
in
rain mn
in
humidity
%
barometer
mb
20260510081641 67 20 0.0 0.0 0.00 0.00 0.00 99 1015.1
20260510081137 67 21 0.0 0.9 0.00 0.00 0.00 99 1014.9
20260510080636 67 20 0.0 0.0 0.00 0.00 0.00 99 1014.9
20260510080134 67 21 0.0 0.9 0.00 0.00 0.00 99 1014.8
20260510075631 67 13 0.0 0.9 0.00 0.00 0.00 99 1015.1
20260510075128 67 14 0.9 0.9 0.00 0.00 0.00 99 1014.7
20260510074625 67 14 1.7 1.7 0.00 0.00 0.00 99 1014.6
20260510074120 67 6 1.7 1.7 0.00 0.00 0.00 99 1015.0
20260510073617 67 9 0.9 1.7 0.00 0.00 0.00 99 1014.7
20260510073114 67 9 0.9 0.9 0.00 0.00 0.00 99 1014.7
20260510072610 67 9 0.0 0.0 0.00 0.00 0.00 99 1014.6
20260510072107 67 9 0.9 1.7 0.00 0.00 0.00 99 1014.5
20260510071603 67 9 1.7 1.7 0.00 0.00 0.00 99 1014.6
20260510071101 67 9 0.9 1.7 0.00 0.00 0.00 99 1014.4
20260510070557 67 9 0.9 0.9 0.00 0.00 0.00 99 1014.4
20260510070055 67 10 0.9 1.7 0.00 0.00 0.00 99 1014.4
20260510065551 67 12 0.9 0.9 0.00 0.00 0.00 99 1014.4
20260510065047 67 10 0.0 0.0 0.00 0.00 0.00 99 1014.6
20260510064543 67 11 0.9 1.7 0.00 0.00 0.00 99 1014.7
20260510064040 67 16 1.7 1.7 0.00 0.00 0.00 99 1014.6
20260510063537 67 15 0.9 1.7 0.00 0.00 0.00 99 1014.5
20260510063034 67 16 1.7 5.2 0.00 0.00 0.00 99 1014.6
20260510062530 67 26 0.9 1.7 0.00 0.00 0.00 99 1014.5
20260510062025 67 20 0.9 0.9 0.00 0.00 0.00 99 1014.6
20260510061522 67 3 1.7 2.6 0.00 0.00 0.00 99 1014.8
20260510061019 67 16 0.0 0.9 0.00 0.00 0.00 99 1014.6
20260510060515 67 13 0.9 0.9 0.00 0.00 0.00 99 1014.7
20260510060011 67 13 0.0 0.0 0.00 0.00 0.00 99 1014.6
20260510055507 67 17 0.9 1.7 0.00 0.00 0.00 99 1015.1
20260510055006 67 23 1.7 1.7 0.00 0.00 0.00 99 1014.8
20260510054501 67 36 0.0 0.0 0.00 0.00 0.00 99 1014.5
20260510053956 67 37 0.9 0.9 0.00 0.00 0.00 99 1014.6
20260510053451 66 6 1.7 1.7 0.00 0.00 0.00 99 1014.9
20260510052948 66 12 1.7 1.7 0.00 0.00 0.00 99 1014.8
20260510052444 66 21 1.7 1.7 0.00 0.00 0.00 99 1014.6
20260510051940 66 19 1.7 1.7 0.00 0.00 0.00 99 1014.5
20260510051437 66 129 0.0 0.0 0.00 0.00 0.00 99 1014.3
20260510050933 66 130 0.0 0.0 0.00 0.00 0.00 99 1014.4
20260510050430 66 131 1.7 1.7 0.00 0.00 0.00 99 1014.6
20260510045927 66 19 0.9 1.7 0.00 1.84 1.84 99 1014.4
20260510045424 67 18 0.0 0.0 0.00 1.84 1.84 99 1014.6
20260510044921 67 18 0.0 0.9 0.00 1.84 1.84 99 1014.8
20260510044418 67 18 0.9 1.7 0.00 1.84 1.84 99 1015.0
20260510043915 67 9 1.7 2.6 0.00 1.84 1.84 99 1014.8
20260510043411 67 9 0.9 0.9 0.00 1.84 1.84 98 1014.8
20260510042909 67 8 0.0 0.9 0.00 1.84 1.84 98 1014.8
20260510042404 67 7 0.9 0.9 0.00 1.84 1.84 98 1014.9
20260510041900 67 4 0.9 1.7 0.00 1.84 1.84 98 1015.2
20260510041357 67 0 0.9 0.9 0.00 1.84 1.84 98 1015.2
20260510040855 68 101 0.9 0.9 0.00 1.84 1.84 98 1014.9
20260510040352 68 102 0.0 0.9 0.00 1.84 1.84 98 1014.7
20260510035847 68 106 0.9 0.9 0.00 1.84 1.84 98 1014.6
20260510035343 68 169 1.7 2.6 0.00 1.84 1.84 98 1014.5
20260510034839 68 188 4.3 6.1 0.00 1.84 1.84 98 1014.6
20260510034337 68 186 2.6 5.2 0.00 1.84 1.84 98 1014.4
20260510033833 68 181 3.5 5.2 0.00 1.84 1.84 98 1014.5
20260510033330 68 172 5.2 7.0 0.00 1.84 1.84 98 1014.7
20260510032827 68 173 3.5 5.2 0.00 1.84 1.84 98 1014.5
20260510032324 68 180 3.5 5.2 0.00 1.84 1.84 98 1014.6
20260510031819 68 178 3.5 6.1 0.00 1.84 1.84 98 1014.6
20260510031315 68 174 5.2 6.1 0.00 1.84 1.84 98 1014.6
20260510030809 68 166 5.2 8.7 0.00 1.84 1.84 98 1014.4
20260510030306 68 162 3.5 7.0 0.00 1.84 1.84 98 1014.5
20260510025803 68 189 5.2 6.1 0.00 1.84 1.84 98 1014.9
20260510025301 68 171 3.5 6.1 0.00 1.84 1.84 99 1014.9
20260510024757 68 171 5.2 7.0 0.00 1.84 1.84 99 1014.6
20260510024254 68 186 5.2 7.0 0.00 1.84 1.84 99 1014.7
20260510023750 68 167 3.5 5.2 0.00 1.84 1.84 99 1014.7
20260510023247 68 164 4.3 7.8 0.00 1.84 1.84 99 1014.6
20260510022743 68 156 3.5 5.2 0.00 1.84 1.84 99 1014.8
20260510022243 68 185 5.2 6.1 0.00 1.84 1.84 99 1014.5
20260510021743 67 206 3.5 7.8 0.00 1.84 1.84 99 1014.4
20260510021241 68 187 4.3 6.1 0.00 1.84 1.84 99 1014.5
20260510020736 68 187 3.5 3.5 0.00 1.84 1.84 99 1014.7
20260510020231 68 199 3.5 5.2 0.00 1.84 1.84 99 1014.8
20260510015727 68 209 1.7 2.6 0.00 1.84 1.84 99 1014.7
20260510015224 68 253 0.9 2.6 0.00 1.84 1.84 99 1014.8
20260510014719 68 14 0.0 0.0 0.00 1.84 1.84 99 1014.9
20260510014217 68 14 0.0 0.9 0.00 1.84 1.84 99 1014.9
20260510013712 68 16 1.7 1.7 0.00 1.84 1.84 99 1014.9
20260510013208 68 1 0.0 0.9 0.00 1.84 1.84 99 1014.5
20260510012708 68 44 0.9 0.9 0.00 1.84 1.84 99 1014.2
20260510012203 68 173 1.7 2.6 0.00 1.84 1.84 99 1014.4
20260510011658 68 185 2.6 2.6 0.00 1.84 1.84 99 1014.6
20260510011154 68 181 2.6 2.6 0.00 1.84 1.84 99 1014.6
20260510010650 68 181 2.6 2.6 0.00 1.84 1.84 99 1014.7
20260510010148 68 184 1.7 1.7 0.00 1.84 1.84 99 1014.7
20260510005643 68 185 0.0 0.0 0.00 1.84 1.84 99 1014.6
20260510005140 68 186 1.7 2.6 0.00 1.84 1.84 99 1015.0
20260510004639 68 173 0.9 2.6 0.00 1.84 1.84 98 1014.7
20260510004137 68 174 1.7 1.7 0.00 1.84 1.84 99 1014.6
20260510003633 68 190 1.7 2.6 0.00 1.84 1.84 98 1014.4
20260510003129 68 134 0.0 0.0 0.00 1.84 1.84 98 1014.6
20260510002629 68 134 0.0 0.9 0.00 1.84 1.84 98 1014.3
20260510002126 68 134 0.9 0.9 0.00 1.84 1.84 98 1014.3
20260510001623 68 13 0.0 0.9 0.00 1.84 1.84 98 1014.3
20260510001122 68 17 0.9 0.9 0.00 1.84 1.84 98 1014.2
20260510000622 68 23 0.0 1.7 0.00 1.84 1.84 98 1014.2
20260510000120 68 7 0.0 0.9 0.00 1.84 1.84 98 1014.1
20260509235616 68 7 0.0 0.9 0.00 1.84 1.84 98 1014.1
20260509235113 68 20 0.0 0.9 0.00 1.84 1.84 98 1013.8
20260509234608 68 180 0.0 0.0 0.00 1.84 1.84 99 1013.5
20260509234107 68 180 0.0 0.0 0.00 1.84 1.84 99 1013.5
20260509233604 68 180 0.9 1.7 0.00 1.84 1.84 99 1013.6
20260509233101 68 179 0.9 0.9 0.00 1.84 1.84 99 1013.4
20260509232557 68 180 0.9 1.7 0.00 1.84 1.84 99 1013.4
20260509232054 68 116 1.7 5.2 0.00 1.84 1.84 99 1013.2
20260509231551 68 181 4.3 7.0 0.00 1.84 1.84 99 1013.3
20260509231049 68 248 0.9 2.6 0.00 1.84 1.84 99 1012.9
20260509230545 68 189 2.6 5.2 0.00 1.84 1.84 99 1012.8
20260509230042 68 7 2.6 2.6 0.00 1.84 1.84 99 1012.6
20260509225537 68 207 0.9 2.6 0.00 1.84 1.84 99 1012.6
20260509225033 68 42 0.9 1.7 0.00 1.84 1.84 99 1012.5
20260509224529 68 128 2.6 2.6 0.00 1.84 1.84 99 1012.9
20260509224026 68 354 1.7 2.6 0.00 1.84 1.84 99 1012.8
20260509223523 68 0 1.7 1.7 0.00 1.84 1.84 99 1012.9
20260509223021 68 51 0.9 1.7 0.07 1.84 1.84 99 1013.1
20260509222516 68 12 0.0 0.9 0.07 1.84 1.84 99 1012.9
20260509222012 67 65 0.9 0.9 0.00 1.83 1.83 99 1013.3
20260509221508 67 266 1.7 5.2 0.00 1.83 1.83 99 1013.1
20260509221004 67 49 0.0 0.9 0.05 1.83 1.83 99 1013.2
20260509220501 67 154 3.5 5.2 0.05 1.83 1.83 99 1013.1
20260509215956 67 187 1.7 1.7 0.07 1.82 1.82 99 1013.2
20260509215452 67 188 1.7 2.6 0.12 1.82 1.82 99 1013.3
20260509214950 67 182 0.0 1.7 0.05 1.81 1.81 99 1013.5
20260509214447 67 181 0.9 1.7 0.07 1.80 1.80 99 1013.9
20260509213943 67 21 0.9 0.9 0.12 1.79 1.79 99 1013.9
20260509213439 66 56 0.0 0.9 0.12 1.78 1.78 99 1013.7
20260509212937 66 218 0.9 5.2 0.17 1.77 1.77 99 1013.3
20260509212434 66 200 0.0 1.7 0.19 1.75 1.75 99 1013.4
20260509211930 66 246 2.6 2.6 0.19 1.74 1.74 99 1013.3
20260509211426 66 134 0.9 2.6 0.17 1.72 1.72 99 1013.2
20260509210923 66 203 2.6 5.2 0.12 1.70 1.70 99 1013.2
20260509210420 66 12 0.0 2.6 0.12 1.69 1.69 99 1012.9
20260509205915 66 117 3.5 3.5 0.17 1.68 1.68 99 1013.2
20260509205415 67 4 0.9 2.6 0.31 1.67 1.67 99 1013.6
20260509204911 67 197 2.6 2.6 0.31 1.65 1.65 99 1014.1
20260509204408 67 23 1.7 1.7 0.19 1.62 1.62 99 1014.1
20260509203904 67 178 0.9 5.2 0.19 1.60 1.60 99 1014.5
20260509203400 67 201 1.7 2.6 0.35 1.59 1.59 99 1014.5
20260509202858 67 357 0.9 1.7 0.61 1.56 1.56 99 1014.1
20260509202353 67 34 0.9 0.9 0.61 1.52 1.52 98 1013.7
20260509201849 67 22 0.0 0.9 0.35 1.45 1.45 99 1014.2
20260509201345 67 192 4.3 5.2 0.28 1.42 1.42 98 1014.7
20260509200842 66 189 2.6 3.5 0.19 1.38 1.38 98 1014.5
20260509200336 66 29 0.0 2.6 0.50 1.37 1.37 98 1014.1
20260509195834 66 12 1.7 2.6 0.47 1.35 1.35 98 1014.1
20260509195334 66 183 1.7 3.5 0.19 1.28 1.28 98 1014.3
20260509194833 66 266 1.7 2.6 0.24 1.27 1.27 98 1014.8
20260509194330 66 334 1.7 3.5 0.54 1.25 1.25 98 1014.5
20260509193827 66 209 1.7 2.6 0.66 1.23 1.23 98 1014.2
20260509193327 66 36 0.9 2.6 0.42 1.15 1.15 98 1014.0
20260509192823 67 3 4.3 7.0 0.85 1.12 1.12 98 1014.0
20260509192319 67 355 0.9 3.5 2.22 1.06 1.06 98 1013.7
20260509191814 67 352 1.7 1.7 1.87 0.93 0.93 98 1013.3
20260509191311 67 351 1.7 2.6 0.47 0.68 0.68 97 1013.8
20260509190806 67 34 0.9 2.6 0.07 0.61 0.61 97 1013.5
20260509190304 67 139 1.7 7.8 0.00 0.60 0.60 97 1013.6
20260509185801 67 185 3.5 6.1 0.07 0.60 0.60 98 1013.5
20260509185257 67 223 2.6 8.7 0.07 0.60 0.60 98 1013.4
20260509184755 67 45 1.7 7.0 0.00 0.59 0.59 98 1013.6
20260509184252 67 169 4.3 7.0 0.00 0.59 0.59 98 1014.3
20260509183748 67 175 5.2 7.8 0.00 0.59 0.59 98 1014.2
20260509183244 67 190 5.2 8.7 0.00 0.59 0.59 98 1014.2
20260509182739 67 174 5.2 11.3 0.00 0.59 0.59 98 1014.2
20260509182237 67 44 3.5 6.1 0.00 0.59 0.59 98 1014.5
20260509181734 67 161 1.7 3.5 0.05 0.59 0.59 98 1014.7
20260509181232 67 190 2.6 5.2 0.05 0.59 0.59 98 1014.6
20260509180729 67 196 3.5 5.2 0.00 0.58 0.58 98 1014.8
20260509180225 67 181 2.6 3.5 0.00 0.58 0.58 98 1014.6
20260509175721 67 167 0.9 1.7 0.00 0.58 0.58 98 1014.3
20260509175218 67 186 1.7 2.6 0.00 0.58 0.58 98 1014.7
20260509174713 67 67 0.0 1.7 0.00 0.58 0.58 98 1014.5
20260509174209 67 177 3.5 5.2 0.19 0.58 0.58 97 1014.3
20260509173705 67 114 0.9 2.6 0.85 0.58 0.58 97 1013.9
20260509173201 67 235 0.9 1.7 0.50 0.52 0.52 97 1013.8
20260509172657 67 181 0.0 0.0 0.00 0.44 0.44 97 1014.1
20260509172154 67 199 0.0 2.6 0.00 0.44 0.44 97 1014.1
20260509171649 67 231 1.7 5.2 0.00 0.44 0.44 97 1014.3
20260509171146 67 9 2.6 2.6 0.00 0.44 0.44 97 1014.2
20260509170643 67 185 2.6 2.6 0.00 0.44 0.44 97 1014.4
20260509170139 67 0 0.0 0.9 0.00 0.44 0.44 96 1014.1
20260509165637 67 8 0.9 1.7 0.00 0.44 0.44 96 1014.1
20260509165133 67 49 0.9 2.6 0.00 0.44 0.44 96 1014.4
20260509164629 67 103 1.7 3.5 0.00 0.44 0.44 96 1014.2
20260509164125 67 5 1.7 1.7 0.00 0.44 0.44 97 1014.2
20260509163623 67 68 1.7 2.6 0.00 0.44 0.44 97 1014.6
20260509163118 68 27 0.0 0.9 0.00 0.44 0.44 97 1014.5
20260509162616 67 66 0.0 1.7 0.00 0.44 0.44 97 1014.4
20260509162112 67 216 0.9 2.6 0.00 0.44 0.44 97 1014.4
20260509161608 68 214 0.9 1.7 0.00 0.44 0.44 97 1014.6
20260509161108 67 49 0.0 0.9 0.00 0.44 0.44 98 1014.5
20260509160605 67 49 0.9 1.7 0.00 0.44 0.44 98 1014.8
20260509160100 67 4 0.0 0.9 0.00 0.44 0.44 98 1014.9
20260509155556 67 108 0.9 3.5 0.00 0.44 0.44 98 1014.9
20260509155053 67 205 1.7 1.7 0.00 0.44 0.44 98 1015.0
20260509154549 67 157 1.7 3.5 0.00 0.44 0.44 98 1014.9
20260509154046 67 168 2.6 2.6 0.00 0.44 0.44 98 1014.8
20260509153543 67 163 3.5 5.2 0.00 0.44 0.44 98 1014.7
20260509153040 67 136 0.9 0.9 0.00 0.44 0.44 98 1014.6
20260509152536 67 51 1.7 3.5 0.00 0.44 0.44 98 1014.4
20260509152033 66 49 0.9 0.9 0.00 0.44 0.44 98 1014.0
20260509151529 66 6 1.7 3.5 0.00 0.44 0.44 98 1013.9
20260509151027 66 43 1.7 1.7 0.00 0.44 0.44 99 1014.1
20260509150524 66 175 2.6 6.1 0.00 0.44 0.44 98 1014.6
20260509150023 66 176 1.7 5.2 0.00 0.44 0.44 99 1014.2
20260509145518 66 197 3.5 5.2 0.00 0.44 0.44 99 1014.5
20260509145013 66 333 0.0 1.7 0.00 0.44 0.44 99 1014.3
20260509144511 66 12 1.7 3.5 0.00 0.44 0.44 99 1014.0
20260509144008 66 346 0.0 0.9 0.00 0.44 0.44 99 1014.1
20260509143505 66 15 0.9 0.9 0.00 0.44 0.44 99 1013.8
20260509143003 66 12 0.0 0.9 0.00 0.44 0.44 99 1014.3
20260509142458 66 54 1.7 2.6 0.00 0.44 0.44 99 1014.0
20260509141953 66 75 0.0 1.7 0.00 0.44 0.44 99 1014.2
20260509141450 66 28 0.9 1.7 0.00 0.44 0.44 99 1014.1
20260509140947 66 7 1.7 3.5 0.00 0.44 0.44 99 1014.2
20260509140443 66 20 0.9 0.9 0.00 0.44 0.44 99 1014.2
20260509135942 66 274 1.7 2.6 0.00 0.44 0.44 99 1014.1
20260509135439 66 11 1.7 2.6 0.00 0.44 0.44 99 1013.9
20260509134936 66 8 0.0 0.9 0.00 0.44 0.44 99 1014.1
20260509134433 66 12 0.9 0.9 0.00 0.44 0.44 99 1014.0
20260509133931 66 353 1.7 3.5 0.00 0.44 0.44 99 1013.9
20260509133427 66 167 2.6 3.5 0.00 0.44 0.44 99 1013.9
20260509132925 66 352 0.0 2.6 0.00 0.44 0.44 99 1014.0
20260509132423 66 351 0.0 0.9 0.00 0.44 0.44 99 1013.9
20260509131920 66 30 0.0 2.6 0.05 0.44 0.44 99 1013.8
20260509131417 66 66 0.9 2.6 0.50 0.43 0.43 99 1013.8
20260509130914 66 11 2.6 2.6 1.02 0.43 0.43 99 1013.7
20260509130409 66 45 1.7 2.6 0.66 0.37 0.37 99 1013.8
20260509125906 66 351 0.9 2.6 0.07 0.26 0.26 99 1014.2
20260509125403 66 30 0.9 0.9 0.07 0.26 0.26 99 1013.8
20260509124859 66 355 2.6 2.6 0.24 0.25 0.25 99 1013.8
20260509124356 66 10 1.7 7.0 0.85 0.24 0.24 98 1013.9
20260509123854 66 10 5.2 6.1 1.09 0.21 0.21 98 1014.0
20260509123351 66 17 2.6 7.0 0.24 0.07 0.07 98 1013.5
20260509122846 66 1 4.3 5.2 0.00 0.03 0.03 98 1013.7
20260509122344 67 25 2.6 13.0 0.00 0.03 0.03 98 1013.1
20260509121840 67 350 6.1 11.3 0.05 0.03 0.03 98 1013.6
20260509121337 67 350 5.2 9.6 0.12 0.02 0.02 98 1013.0
20260509120836 68 353 8.7 13.9 0.12 0.02 0.02 98 1013.2
20260509120333 70 17 9.6 12.2 0.00 0.00 0.00 99 1012.7
20260509115831 71 9 4.3 5.2 0.00 0.00 0.00 99 1013.2
20260509115328 70 354 1.7 2.6 0.00 0.00 0.00 99 1012.9
20260509114826 70 8 1.7 1.7 0.00 0.00 0.00 99 1012.8
20260509114324 70 8 1.7 1.7 0.00 0.00 0.00 99 1012.8
20260509113823 70 7 1.7 2.6 0.00 0.00 0.00 99 1013.0
20260509113320 70 0 1.7 1.7 0.00 0.00 0.00 99 1012.9
20260509112816 70 0 0.9 0.9 0.00 0.00 0.00 99 1012.9
20260509112314 70 2 0.9 1.7 0.00 0.00 0.00 99 1012.4
20260509111811 70 2 0.9 1.7 0.00 0.00 0.00 99 1012.7
20260509111308 70 358 1.7 1.7 0.00 0.00 0.00 99 1012.7
20260509110805 70 4 1.7 1.7 0.00 0.00 0.00 99 1012.6
20260509110301 70 351 2.6 2.6 0.00 0.00 0.00 99 1012.5
20260509105759 70 181 1.7 0.9 0.00 0.00 0.00 99 1012.1
20260509105257 70 181 0.0 0.0 0.00 0.00 0.00 99 1011.9
20260509104753 70 181 0.9 0.9 0.00 0.00 0.00 99 1012.0
20260509104250 70 181 0.0 0.9 0.00 0.00 0.00 99 1011.8
20260509103749 70 181 0.9 1.7 0.00 0.00 0.00 99 1011.5
20260509103245 70 183 2.6 2.6 0.00 0.00 0.00 99 1011.8
20260509102744 70 192 2.6 2.6 0.00 0.00 0.00 99 1011.5
20260509102240 70 154 0.9 0.9 0.00 0.00 0.00 99 1011.8
20260509101737 70 153 0.0 0.0 0.00 0.00 0.00 99 1011.9
20260509101233 70 153 0.0 0.0 0.00 0.00 0.00 99 1011.8
20260509100730 70 153 0.9 0.9 0.00 0.00 0.00 99 1011.8
20260509100228 70 154 0.0 0.9 0.00 0.00 0.00 99 1012.0
20260509095724 70 140 0.9 1.7 0.00 0.00 0.00 99 1011.7
20260509095222 70 170 1.7 2.6 0.00 0.00 0.00 99 1011.6
20260509094719 70 143 2.6 2.6 0.00 0.00 0.00 99 1011.5
20260509094215 70 140 1.7 1.7 0.00 0.00 0.00 99 1011.6
20260509093714 70 185 2.6 3.5 0.00 0.00 0.00 99 1011.3
20260509093210 70 169 1.7 1.7 0.00 0.00 0.00 99 1011.3
20260509092708 70 146 1.7 1.7 0.00 0.00 0.00 99 1011.6
20260509092207 69 156 1.7 2.6 0.00 0.00 0.00 99 1011.5
20260509091704 69 171 1.7 2.6 0.00 0.00 0.00 99 1011.5
20260509091200 69 158 1.7 2.6 0.00 0.00 0.00 99 1011.4
20260509090658 69 186 2.6 2.6 0.00 0.00 0.00 99 1011.5
20260509090155 69 175 1.7 2.6 0.00 0.00 0.00 99 1011.3
20260509085653 69 184 1.7 2.6 0.00 0.00 0.00 99 1011.4
20260509085149 69 187 1.7 1.7 0.00 0.00 0.00 99 1011.4
20260509084646 69 161 0.9 1.7 0.00 0.00 0.00 99 1011.3
20260509084143 69 161 0.9 1.7 0.00 0.00 0.00 99 1011.3
20260509083641 69 172 0.9 1.7 0.00 0.00 0.00 99 1011.5
20260509083137 69 185 0.9 1.7 0.00 0.00 0.00 99 1011.5
20260509082634 69 142 0.9 0.9 0.00 0.00 0.00 99 1011.5
20260509082131 69 158 0.9 1.7 0.00 0.00 0.00 99 1011.6